Probability
0 0 0 0 0 0 0 0 0 0 0 0 0 0 0 0 0 0 0 0 0 0 0 0 0 0 0 0 0 0 0 0 0 0 0 0 0 0 0 0 0 0 0
0 0 0 0 0 0 0 0 0 0 0 0 0 0 0 0 0 0 0 0 0 0 0 0 0 0 0 0 0 0 0 0 0 0 0 0 0 0 0 0 0 0 0
0 0 0 0 0 0 0 0 0 0 0 0 0 0 0 0 0 0 0 0 0 0 0 0 0 0 0 0 0 0 0 0 0 0 0 0 0 0 0 0 0 0 0
0 0 0 0 0 0 0 0 0 0 0 0 0 0 0 0 0 0 0 0 0 0 0 0 0 0 0 0 0 0 0 0 0 0 0 0 0 0 0 0 0 0 0
0 0 0 0 0 0 0 0 0 0 0 0 0 0 0 0 0 0 0 0 0 0 0 0 0 0 0 0 0 0 0 0 0 0 0 0 0 0 0 0 0 0 0
0 0 0 0 0 0 0 0 0 0 0 0 0 0 0 0 0 0 0 0 0 0 0 0 0 0 0 0 0 0 0 0 0 0 0 0 0 0 0 0 0 0 0
0 0 0 0 0 0 0 0 0 0 0 0 0 0 0 0 0 0 0 0 0 0 0 0 0 0 0 0 0 0 0 0 0 0 0 0 0 0 0 0 0 0 0
0 0 0 0 0 0 0 0 0 0 0 0 0 0 0 0 0 0 0 0 0 0 0 0 0 0 0 0 0 0 0 0 0 0 0 0 0 0 0 0 0 0 0
0 0 0 0 0 0 0 0 0 0 0 0 0 0 0 0 0 0 0 0 0 0 0 0 0 0 0 0 0 0 0 0 0 0 0 0 0 0 0 0 0 0 0
0 0 0 0 0 0 0 0 0 0 0 0 0 0 0 0 0 0 0 0 0 0 0 0 0 0 0 0 0 0 0 0 0 0 0 0 0 0 0 0 0 0 0
0 0 0 0 0 0 0 0 0 0 0 0 0 0 0 0 0 0 0 0 0 0 0 0 0 0 0 0 0 0 0 0 0 0 0 0 0 0 0 0 0 0 0
0 0 0 0 0 0 0 0 0 0 0 0 0 0 0 0 0 0 0 0 0 0 0 0 0 0 0 0 0 0 0 0 0 0 0 0 0 0 0 0 0 0 0
0 0 0 0 0 0 0 0 0 0 0 0 0 0 0 0 0 0 0 0 0 0 0 0 0 0 0 0 0 0 0 0 0 0 0 0 0 0 0 0 0 0 0
0 0 0 0 0 0 0 0 0 0 0 0 0 0 0 0 0 0 0 0 0 0 0 0 0 0 0 0 0 0 0 0 0 0 0 0 0 0 0 0 0 0 0
0 0 0 0 0 0 0 0 0 0 0 0 0 0 0 0 0 0 0 0 0 0 0 0 0 0 0 0 0 0 0 0 0 0 0 0 0 0 0 0 0 0 0
0 0 0 0 0 0 0 0 0 0 0 0 0 0 0 0 0 0 0 0 0 0 0 0 0 0 0 0 0 0 0 0 0 0 0 0 0 0 0 0 0 0 0
0 0 0 0 0 0 0 0 0 0 0 0 0 0 0 0 0 0 0 0 0 0 0 0 0 0 0 0 0 0 0 0 0 0 0 0 0 0 0 0 0 0 0
0 0 0 0 0 0 0 0 0 0 0 0 0 0 0 0 0 0 0 0 0 0 0 0 0 0 0 0 0 0 0 0 0 0 0 0 0 0 0 0 0 0 0
0 0 0 0 0 0 0 0 0 0 0 0 0 0 0 0 0 0 0 0 0 0 0 0 0 0 0 0 0 0 0 0 0 0 0 0 0 0 0 0 0 0 0
0 0 0 0 0 0 0 0 0 0 0 0 0 0 0 0 0 0 0 0 0 0 0 0 0 0 0 0 0 0 0 0 0 0 0 0 0 0 0 0 0 0 0
0 0 0 0 0 0 0 0 0 0 0 0 0 0 0 0 0 0 0 0 0 0 0 0 0 0 0 0 0 0 0 0 0 0 0 0 0 0 0 0 0 0 0
0 0 0 0 0 0 0 0 0 0 0 0 0 0 0 0 0 0 0 0 0 0 0 0 0 0 0 0 0 0 0 0 0 0 0 0 0 0 0 0 0 0 0
0 0 0 0 0 0 0 0 0 0 0 0 0 0 0 0 0 0 0 0 0 0 0 0 0 0 0 0 0 0 0 0 0 0 0 0 0 0 0 0 0 0 0
0 0 0 0 0 0 0 0 0 0 0 0 0 0 0 0 0 0 0 0 0 0 0 0 0 0 0 0 0 0 0 0 0 0 0 0 0 0 0 0 0 0 0
0 0 0 0 0 0 0 0 0 0 0 0 0 0 0 0 0 0 0 0 0 0 0 0 0 0 0 0 0 0 0 0 0 0 0 0 0 0 0 0 0 0 0
0 0 0 0 0 0 0 0 0 0 0 0 0 0 0 0 0 0 0 0 0 0 0 0 0 0 0 0 0 0 0 0 0 0 0 0 0 0 0 0 0 0 0
Wind_Speed
5 4 3 3 3 2 3 2 2 2 2 2 2 2 2 2 2 1 0 0 0 1 2 4 4 5 6 6 7 8 9 10 10 11 12 12 12 12 12 13 13 13 13
6 5 5 4 4 4 3 4 4 3 2 2 2 2 2 2 2 2 1 0 1 1 2 3 4 4 5 6 7 8 9 9 10 11 11 11 11 11 12 12 13 13 14
7 6 5 5 5 4 5 3 3 2 2 2 2 2 2 2 2 3 2 1 1 1 2 3 3 4 5 6 7 7 8 9 10 10 10 10 11 11 12 12 13 13 13
9 7 6 6 5 4 4 4 3 3 2 2 2 2 2 2 3 3 2 2 1 1 2 4 4 4 5 6 6 7 7 8 9 9 9 10 10 11 11 11 12 12 13
9 7 6 6 6 5 4 4 3 3 3 3 2 2 2 2 2 3 3 3 2 2 2 4 6 5 5 5 6 7 7 7 8 8 9 9 9 10 10 11 11 11 12
10 8 6 7 6 5 5 4 4 3 3 3 2 1 2 2 2 3 4 3 3 3 3 3 3 4 6 5 5 6 6 7 8 8 8 8 9 9 9 10 10 11 12
10 9 7 7 7 7 7 7 4 4 3 3 2 0 1 1 1 2 3 3 4 3 4 4 3 2 2 4 5 5 6 7 7 7 7 7 8 8 9 9 10 11 11
11 10 10 9 9 7 7 7 5 4 3 4 4 2 1 1 1 2 2 3 4 4 4 4 4 3 2 1 3 5 5 5 6 6 6 6 7 7 8 9 9 10 11
12 12 12 10 10 10 9 10 9 8 6 5 4 5 4 5 2 1 2 3 4 4 4 4 5 4 3 2 1 3 5 5 5 5 5 5 6 6 7 8 9 9 10
13 13 12 12 11 10 10 10 10 8 7 6 4 4 3 4 4 3 1 2 3 4 5 5 5 4 4 3 3 5 5 5 5 4 4 5 5 5 6 7 8 8 9
13 14 13 13 12 11 12 10 11 10 9 8 6 4 4 2 2 3 3 3 2 3 4 5 5 4 4 4 3 4 6 5 5 4 4 4 4 5 5 6 7 7 8
11 14 14 14 13 12 13 13 12 13 11 10 8 6 5 5 5 5 4 4 4 3 3 4 5 5 4 4 4 6 6 6 5 4 3 3 3 4 4 5 6 7 8
11 15 15 15 13 14 13 12 12 12 13 11 11 9 8 6 5 5 5 4 3 2 3 3 4 5 5 4 4 7 6 6 5 4 3 2 2 2 3 4 5 6 7
13 12 15 15 15 14 13 12 11 12 10 12 13 12 9 8 7 6 6 6 4 3 4 5 3 5 5 5 6 9 4 6 6 5 4 2 1 1 2 3 4 5 6
10 12 13 15 15 14 14 13 11 13 11 12 12 12 10 8 7 7 5 6 7 7 8 7 5 5 5 5 8 5 4 6 7 6 5 3 2 1 1 2 3 4 6
11 11 13 14 14 14 14 14 12 11 12 12 10 11 11 8 7 7 6 6 6 6 6 5 5 5 6 5 8 6 5 7 6 6 5 4 3 1 1 1 2 4 5
13 13 14 14 14 15 14 14 14 12 14 13 11 12 13 10 8 7 6 6 6 5 4 2 2 4 6 7 6 4 4 4 3 5 5 5 4 2 2 2 2 3 4
12 13 13 13 14 14 14 15 15 14 14 14 13 13 13 9 11 8 7 8 7 6 5 5 3 4 5 7 6 6 4 3 3 5 6 6 5 4 3 3 2 2 3
11 11 12 14 14 14 14 15 15 14 15 14 14 14 13 11 11 8 8 8 6 5 4 5 4 3 2 4 5 3 3 2 3 4 6 6 5 5 5 4 3 3 3
10 11 12 12 12 12 13 12 13 13 13 13 12 12 12 13 12 11 9 8 7 6 5 5 4 3 3 4 4 4 3 2 2 2 4 4 4 5 5 5 4 4 4
8 9 9 9 9 9 10 11 11 11 11 11 10 10 10 11 12 11 9 9 9 7 6 5 5 4 5 6 7 5 4 3 2 2 2 3 2 2 3 5 5 5 5
6 6 7 8 8 7 10 14 11 10 10 10 10 8 8 9 10 12 13 13 13 11 10 8 6 7 8 7 6 6 5 4 4 4 3 3 2 3 3 3 6 6 6
5 5 6 6 7 8 11 13 14 9 9 9 9 8 6 6 8 7 9 10 9 11 12 10 10 9 9 10 10 8 7 5 4 4 3 3 2 3 3 4 8 7 7
4 5 5 5 5 5 9 10 11 8 6 7 7 8 8 7 8 9 8 7 6 6 7 6 7 7 7 9 10 9 7 4 2 1 3 3 3 3 2 3 7 7 6
4 4 3 5 5 4 7 9 9 5 5 5 4 5 7 7 11 13 9 8 6 3 4 6 6 7 10 12 10 7 6 5 3 3 3 3 2 1 2 2 4 6 6
4 3 3 3 4 4 7 9 9 4 5 4 3 4 6 7 12 14 9 9 9 6 6 6 7 7 7 10 12 8 8 6 3 3 4 4 2 2 2 2 2 2 3
Wind_Direction
168 170 174 179 185 181 178 179 181 176 168 160 147 139 143 153 162 161 165 164 143 107 94 81 74 74 74 76 75 69 67 64 60 57 55 51 46 43 40 37 34 33 30
173 175 180 186 193 191 188 186 188 183 186 182 184 178 174 170 170 165 167 126 68 90 102 87 75 77 79 81 74 68 68 67 65 61 56 52 48 45 42 40 37 35 33
178 179 183 190 196 191 186 183 189 180 187 195 209 211 197 192 182 175 168 157 89 63 103 100 90 90 88 84 78 72 70 72 69 63 58 54 50 46 44 42 39 36 34
183 181 186 194 192 184 181 180 179 179 193 197 209 222 214 204 194 184 170 159 139 91 83 93 92 96 94 87 86 83 79 77 72 65 60 55 51 47 43 41 38 36 33
188 185 190 192 184 183 185 184 182 176 186 201 210 225 226 212 202 182 173 165 153 132 109 91 79 76 90 94 93 88 85 82 75 68 61 55 51 47 43 40 38 34 32
192 189 191 191 183 184 191 189 186 184 185 186 189 239 253 231 195 185 178 164 155 146 134 116 86 70 79 89 92 92 89 87 78 69 62 56 50 47 44 41 37 33 31
194 192 193 193 191 196 198 192 179 187 199 162 135 292 326 290 203 195 174 165 163 157 144 135 118 93 69 76 90 97 94 89 82 73 64 57 50 47 43 39 36 31 28
198 198 197 197 197 199 200 195 183 179 193 174 159 152 225 293 263 207 181 174 168 156 154 148 134 122 100 65 90 100 94 92 86 77 67 58 50 46 41 38 35 30 26
202 202 202 199 199 200 205 203 195 188 196 198 186 167 176 209 214 213 198 183 172 166 163 153 148 141 130 110 87 99 101 95 87 76 67 59 50 45 41 37 32 28 24
207 206 205 204 204 205 207 205 202 200 189 196 210 216 196 165 168 190 209 200 182 179 175 165 157 154 149 144 136 129 119 110 96 82 71 59 50 44 39 34 30 26 22
211 210 209 208 209 210 211 206 202 204 204 201 194 186 198 201 179 168 196 197 197 199 184 170 164 165 163 160 160 152 139 130 115 98 82 65 50 41 34 31 27 21 17
212 213 212 213 213 213 212 211 208 209 211 210 204 193 179 179 190 185 188 187 196 191 181 178 176 176 173 173 173 159 154 148 137 125 105 82 61 40 28 26 21 16 13
214 215 211 214 215 216 215 210 210 213 213 211 212 212 210 207 180 178 180 175 178 175 173 192 193 182 179 178 179 166 165 160 156 147 133 110 83 50 26 18 13 11 7
218 212 210 214 215 214 213 211 214 216 214 217 219 216 216 217 204 191 181 171 176 188 196 200 186 192 185 180 181 170 174 172 168 164 161 152 122 75 26 9 6 2 3
216 210 209 212 214 213 213 211 217 217 215 217 220 219 220 219 213 208 195 185 184 197 212 197 191 192 185 177 178 172 175 183 177 174 176 175 170 143 5 357 353 353 357
212 209 210 212 212 213 213 214 217 217 217 219 217 217 220 219 214 210 206 203 201 202 209 183 187 175 176 175 177 173 180 178 180 184 185 183 183 192 264 316 337 346 350
211 211 211 210 211 212 212 214 217 214 217 220 216 217 220 213 212 211 206 203 202 186 196 170 140 154 167 172 171 171 170 177 189 192 192 193 195 206 232 259 306 333 341
214 213 211 211 211 211 210 211 214 214 216 218 217 217 219 210 211 207 205 206 203 189 177 179 163 164 176 179 172 171 174 179 189 199 201 202 208 220 225 237 258 303 322
214 211 210 213 212 211 211 212 213 213 215 217 215 216 215 206 209 206 202 203 199 185 168 162 165 156 146 162 161 162 172 182 201 204 207 210 218 225 227 236 249 269 295
214 213 212 214 212 209 209 209 211 213 215 216 214 213 209 206 206 201 200 198 187 175 161 155 156 148 141 146 158 168 182 194 204 203 212 216 224 231 235 245 251 261 279
215 214 212 213 211 208 206 204 207 211 212 213 211 210 209 206 204 198 193 190 182 178 167 165 162 156 162 167 186 180 184 178 206 197 206 217 215 227 234 253 254 255 272
213 209 210 209 209 210 205 202 201 207 208 208 208 207 202 197 198 197 195 190 185 182 180 177 180 185 186 183 171 171 168 167 209 199 192 221 200 225 233 239 252 257 267
204 208 209 206 212 211 204 202 201 202 204 207 205 199 195 194 186 187 189 187 193 194 186 182 185 190 180 180 171 174 187 186 194 171 168 212 206 230 233 250 255 253 260
200 205 208 209 211 213 202 199 196 202 205 205 201 195 190 188 188 177 171 175 185 192 190 190 192 187 178 171 174 174 171 145 88 153 163 196 203 226 246 256 252 244 255
203 203 199 199 204 209 196 190 180 185 195 199 192 186 182 186 186 173 168 170 170 174 160 150 151 151 154 159 157 141 148 156 176 191 180 181 188 214 246 248 252 250 256
197 186 196 197 197 203 193 186 173 171 184 185 178 179 185 185 180 176 174 173 178 176 151 138 135 137 144 160 167 169 167 168 163 191 187 175 172 159 257 256 248 256 264